Walla Walla, WA

8:55 PM PST on December 14, 2017 (GMT -0800)
Walla Walla Regional

Weather History for KALW - April, 2014

Change the Weather History Date:

Tuesday, April 8, 2014

  Actual Average Record
Temperature  
Mean Temperature 62 °F 51 °F  
Max Temperature 75 °F 61 °F 79 °F (1977)
Min Temperature 51 °F 41 °F 30 °F (2002)
Degree Days  
Heating Degree Days 3 14  
Month to date heating degree days 116  
Since 1 July heating degree days 4473  
Cooling Degree Days 0 0  
Month to date cooling degree days 0  
Year to date cooling degree days 0  
Growing Degree Days 12 (Base 50)    
Moisture  
Dew Point 45 °F    
Average Humidity 52    
Maximum Humidity 74    
Minimum Humidity 35    
Precipitation  
Precipitation 0.00 in 0.06 in 0.54 in (1976)
Month to date precipitation 0.53  
Year to date precipitation 7.12  
Snow  
Snow 0.00 in 0.00 in 0.00 in (2002)
Month to date snowfall 0.1  
Year to date snowfall 6.1  
Since 1 July snowfall 11.8  
Snow Depth -    
Sea Level Pressure  
Sea Level Pressure 30.04 in    
Wind  
Wind Speed 7 mph (South)    
Max Wind Speed 13 mph    
Max Gust Speed -    
Visibility 10 miles    
Events      
T = Trace of Precipitation, MM = Missing Value Source: NWS Daily Summary

Daily Weather History Graph

Daily Weather History Graph

Search for Another Location

Airport or City:

Trip Planner

Search our weather history database for the weather conditions in past years. The results will help you decide how hot, cold, wet, or windy it might be!

Date:

Astronomy

Apr. 08, 2014 Rise Set
Actual Time 6:19 AM PDT 7:31 PM PDT
Civil Twilight 5:48 AM PDT 8:02 PM PDT
Nautical Twilight 5:11 AM PDT 8:39 PM PDT
Astronomical Twilight 4:32 AM PDT 9:18 PM PDT
Moon 1:10 PM PDT (4/8) 2:54 AM PDT (4/8)
Length of Visible Light 14h 13m
Length of Day
13h 11m
Waxing Gibbous, 63% of the Moon is Illuminated
Apr 8
Waxing Gibbous
Apr 15
Full
Apr 22
Last Quarter
Apr 28
New
May 6
First Quarter

Hourly Weather History & Observations

Time (PDT) Temp. Dew Point Humidity Pressure Visibility Wind Dir Wind Speed Gust Speed Precip Events Conditions
12:53 AM 57.0 °F 44.1 °F 62% 30.09 in 10.0 mi SSE 3.5 mph - N/A   Clear
1:53 AM 54.0 °F 44.1 °F 69% 30.09 in 10.0 mi East 5.8 mph - N/A   Clear
2:53 AM 52.0 °F 43.0 °F 71% 30.09 in 10.0 mi East 6.9 mph - N/A   Clear
3:53 AM 55.0 °F 42.1 °F 62% 30.09 in 10.0 mi SSE 4.6 mph - N/A   Clear
4:53 AM 53.1 °F 42.1 °F 66% 30.10 in 10.0 mi SE 6.9 mph - N/A   Clear
5:53 AM 51.1 °F 43.0 °F 74% 30.10 in 10.0 mi ESE 5.8 mph - N/A   Clear
6:53 AM 57.0 °F 42.1 °F 57% 30.10 in 10.0 mi South 6.9 mph - N/A   Clear
7:53 AM 57.0 °F 44.1 °F 62% 30.12 in 10.0 mi Calm Calm - N/A   Clear
8:53 AM 62.1 °F 45.0 °F 53% 30.11 in 10.0 mi South 8.1 mph - N/A   Clear
9:53 AM 66.0 °F 48.0 °F 52% 30.11 in 10.0 mi SSW 11.5 mph - N/A   Clear
10:53 AM 66.9 °F 48.0 °F 51% 30.12 in 10.0 mi WSW 12.7 mph - N/A   Clear
11:53 AM 68.0 °F 48.9 °F 50% 30.10 in 10.0 mi SW 11.5 mph - N/A   Clear
12:53 PM 70.0 °F 48.0 °F 46% 30.07 in 10.0 mi Variable 4.6 mph - N/A   Clear
1:53 PM 73.0 °F 48.9 °F 42% 30.04 in 10.0 mi SW 6.9 mph - N/A   Clear
2:53 PM 73.0 °F 46.9 °F 39% 30.01 in 10.0 mi SSW 9.2 mph - N/A   Clear
3:53 PM 73.9 °F 45.0 °F 35% 29.99 in 10.0 mi SW 8.1 mph - N/A   Clear
4:53 PM 73.0 °F 48.0 °F 41% 29.97 in 10.0 mi SSW 8.1 mph - N/A   Clear
5:53 PM 73.0 °F 46.0 °F 38% 29.95 in 10.0 mi South 9.2 mph - N/A   Clear
6:53 PM 69.1 °F 46.0 °F 44% 29.94 in 10.0 mi SSW 9.2 mph - N/A   Clear
7:53 PM 64.9 °F 42.1 °F 43% 29.94 in 10.0 mi SW 9.2 mph - N/A   Clear
8:53 PM 64.9 °F 39.9 °F 40% 29.95 in 10.0 mi South 9.2 mph - N/A   Clear
9:53 PM 62.1 °F 43.0 °F 50% 29.98 in 10.0 mi South 10.4 mph - N/A   Clear
10:53 PM 59.0 °F 42.1 °F 53% 30.00 in 10.0 mi South 12.7 mph - N/A   Partly Cloudy
11:53 PM 57.9 °F 42.1 °F 56% 30.01 in 10.0 mi SSW 11.5 mph - N/A   Clear